Time[GMT],salinity[psu](50m),sigma_t[kg/m^3](50m),conductivity[msiemens/cm](50m),temperature[C](50m)
2008-02-04 09:00,32.229,25.581,30.253,4.02
2008-02-04 10:00,32.227,25.579,30.250,4.02
2008-02-04 11:00,32.212,25.575,30.169,3.93
2008-02-04 12:00,32.212,25.572,30.199,3.97
2008-02-04 13:00,32.215,25.577,30.177,3.94
2008-02-04 14:00,32.204,25.573,30.130,3.90
2008-02-04 15:00,32.215,25.573,30.212,3.98
2008-02-04 16:00,32.234,25.583,30.271,4.03
2008-02-04 17:00,32.341,25.643,30.573,4.29
2008-02-04 18:00,32.336,25.645,30.517,4.22
2008-02-04 19:00,32.358,25.667,30.500,4.18
2008-02-04 20:00,32.389,25.681,30.616,4.29
2008-02-04 21:00,32.355,25.665,30.492,4.18
2008-02-04 22:00,32.350,25.662,30.489,4.18
2008-02-04 23:00,32.224,25.581,30.209,3.97
2008-02-05 00:00,32.207,25.572,30.159,3.93
2008-02-05 01:00,32.371,25.660,30.659,4.36
2008-02-05 02:00,32.242,25.588,30.286,4.05
2008-02-05 03:00,32.196,25.566,30.127,3.90
2008-02-05 04:00,32.213,25.576,30.167,3.93
2008-02-05 05:00,32.312,25.628,30.476,4.20
2008-02-05 06:00,32.243,25.597,30.217,3.96
2008-02-05 07:00,32.322,25.645,30.417,4.12
2008-02-05 08:00,32.316,25.643,30.379,4.08
2008-02-05 09:00,32.325,25.647,30.415,4.11
2008-02-05 10:00,32.390,25.674,30.681,4.36
2008-02-05 11:00,32.256,25.601,30.283,4.03
2008-02-05 12:00,32.221,25.580,30.199,3.96
2008-02-05 13:00,32.291,25.615,30.435,4.17
2008-02-05 14:00,32.233,25.585,30.253,4.01
2008-02-05 15:00,32.236,25.587,30.252,4.01
2008-02-05 16:00,32.352,25.649,30.603,4.31
2008-02-05 17:00,32.247,25.596,30.260,4.01
2008-02-05 18:00,32.274,25.612,30.330,4.07
2008-02-05 19:00,32.279,25.614,30.344,4.08
2008-02-05 20:00,32.391,25.681,30.628,4.30
2008-02-05 21:00,32.316,25.643,30.384,4.09
2008-02-05 22:00,32.315,25.640,30.406,4.11
2008-02-05 23:00,32.203,25.573,30.116,3.88
2008-02-06 00:00,32.230,25.588,30.195,3.95
2008-02-06 01:00,32.247,25.595,30.274,4.03
2008-02-06 02:00,32.297,25.617,30.462,4.20
2008-02-06 03:00,32.308,25.620,30.513,4.25
2008-02-06 04:00,32.249,25.591,30.321,4.08
2008-02-06 05:00,32.317,25.629,30.512,4.24
2008-02-06 06:00,32.174,25.558,30.027,3.80
2008-02-06 07:00,32.213,25.582,30.121,3.88
2008-02-06 08:00,32.200,25.570,30.118,3.89
2008-02-06 09:00,32.206,25.575,30.130,3.89
2008-02-06 10:00,32.204,25.573,30.127,3.89
2008-02-06 11:00,32.204,25.574,30.116,3.88
2008-02-06 12:00,32.231,25.577,30.300,4.07
2008-02-06 13:00,32.240,25.586,30.291,4.05
2008-02-06 14:00,32.271,25.607,30.351,4.09
2008-02-06 15:00,32.280,25.611,30.384,4.12
2008-02-06 16:00,32.274,25.607,30.374,4.12
2008-02-06 17:00,32.335,25.641,30.549,4.26
2008-02-06 18:00,32.268,25.598,30.409,4.16
2008-02-06 19:00,32.256,25.605,30.254,3.99
2008-02-06 20:00,32.223,25.586,30.159,3.91
2008-02-06 21:00,32.218,25.582,30.152,3.91
2008-02-06 22:00,32.211,25.577,30.144,3.91
2008-02-06 23:00,32.202,25.573,30.114,3.88
2008-02-07 00:00,32.199,25.570,30.119,3.89
2008-02-07 01:00,32.170,25.550,30.066,3.85
2008-02-07 02:00,32.279,25.609,30.392,4.13
2008-02-07 03:00,32.301,25.622,30.454,4.18
2008-02-07 04:00,32.309,25.626,30.479,4.21
2008-02-07 05:00,32.289,25.615,30.415,4.15
2008-02-07 06:00,32.293,25.621,30.395,4.12
2008-02-07 07:00,32.320,25.637,30.463,4.18
2008-02-07 08:00,32.312,25.633,30.443,4.16
2008-02-07 09:00,32.302,25.628,30.403,4.12
2008-02-07 10:00,32.231,25.589,30.202,3.95
2008-02-07 11:00,32.267,25.608,30.309,4.05
2008-02-07 12:00,32.181,25.555,30.102,3.89
2008-02-07 13:00,32.318,25.636,30.459,4.17
2008-02-07 14:00,32.315,25.630,30.487,4.21
2008-02-07 15:00,32.254,25.594,30.328,4.08
2008-02-07 16:00,32.290,25.613,30.441,4.18
2008-02-07 17:00,32.302,25.621,30.460,4.19
2008-02-07 18:00,32.312,25.629,30.472,4.20
2008-02-07 19:00,32.289,25.618,30.396,4.13
2008-02-07 20:00,32.260,25.600,30.331,4.08
2008-02-07 21:00,32.258,25.601,30.306,4.05
2008-02-07 22:00,32.238,25.589,30.253,4.01
2008-02-07 23:00,32.153,25.543,29.996,3.79
2008-02-08 00:00,32.148,25.543,29.956,3.74
2008-02-08 01:00,32.169,25.555,30.010,3.79
2008-02-08 02:00,32.312,25.630,30.468,4.19
2008-02-08 03:00,32.309,25.627,30.469,4.20
2008-02-08 04:00,32.286,25.612,30.418,4.16
2008-02-08 05:00,32.305,25.624,30.461,4.19
2008-02-08 06:00,32.310,25.628,30.469,4.19
2008-02-08 07:00,32.299,25.623,30.427,4.16
2008-02-08 08:00,32.277,25.611,30.361,4.10
2008-02-08 09:00,32.223,25.580,30.216,3.98
2008-02-08 10:00,32.211,25.576,30.159,3.92
2008-02-08 11:00,32.199,25.563,30.180,3.96
2008-02-08 12:00,32.238,25.588,30.258,4.01
2008-02-08 13:00,32.240,25.588,30.272,4.03
2008-02-08 14:00,32.285,25.611,30.418,4.16
2008-02-08 15:00,32.274,25.603,30.400,4.15
2008-02-08 16:00,32.259,25.595,30.361,4.12
2008-02-08 17:00,32.251,25.591,30.327,4.09
2008-02-08 18:00,32.265,25.599,30.370,4.12
2008-02-08 19:00,32.272,25.604,30.380,4.13
2008-02-08 20:00,32.245,25.590,30.292,4.05
2008-02-08 21:00,32.224,25.579,30.232,4.00
2008-02-08 22:00,32.201,25.566,30.170,3.95
2008-02-08 23:00,32.182,25.555,30.110,3.89
2008-02-09 00:00,32.203,25.565,30.181,3.96
2008-02-09 01:00,32.226,25.579,30.240,4.01
2008-02-09 02:00,32.254,25.594,30.331,4.09
2008-02-09 03:00,32.275,25.612,30.334,4.07
2008-02-09 04:00,32.230,25.579,30.275,4.04
2008-02-09 05:00,32.245,25.587,30.320,4.08
2008-02-09 06:00,32.245,25.588,30.314,4.07
2008-02-09 07:00,32.270,25.602,30.382,4.13
2008-02-09 08:00,32.250,25.592,30.312,4.07
2008-02-09 09:00,32.231,25.582,30.258,4.02
2008-02-09 10:00,32.188,25.558,30.137,3.92
2008-02-09 11:00,32.199,25.563,30.172,3.95
2008-02-09 12:00,32.210,25.569,30.202,3.98
2008-02-09 13:00,32.228,25.579,30.256,4.02
2008-02-09 14:00,32.191,25.565,30.091,3.86
2008-02-09 15:00,32.257,25.594,30.352,4.11
2008-02-09 16:00,32.245,25.586,30.334,4.10
2008-02-09 17:00,32.246,25.585,30.345,4.11
2008-02-09 18:00,32.253,25.590,30.353,4.11
2008-02-09 19:00,32.250,25.592,30.320,4.08
2008-02-09 20:00,32.259,25.598,30.336,4.09
2008-02-09 21:00,32.236,25.587,30.251,4.01
2008-02-09 22:00,32.192,25.558,30.160,3.94
2008-02-09 23:00,32.167,25.544,30.096,3.89
2008-02-10 00:00,32.167,25.544,30.095,3.89
2008-02-10 01:00,32.229,25.580,30.256,4.02
2008-02-10 02:00,32.249,25.594,30.292,4.05
2008-02-10 03:00,32.245,25.587,30.316,4.08
2008-02-10 04:00,32.244,25.584,30.340,4.11
2008-02-10 05:00,32.250,25.587,30.352,4.12
2008-02-10 06:00,32.024,25.478,29.536,3.36
2008-02-10 07:00,32.072,25.500,29.733,3.55
2008-02-10 08:00,32.237,25.587,30.257,4.01
2008-02-10 09:00,32.212,25.580,30.126,3.88
2008-02-10 10:00,32.236,25.588,30.240,4.00
2008-02-10 11:00,32.192,25.561,30.144,3.92
2008-02-10 12:00,32.167,25.550,30.033,3.82
2008-02-10 13:00,32.160,25.553,29.955,3.73
2008-02-10 14:00,32.240,25.591,30.252,4.01
2008-02-10 15:00,32.237,25.586,30.266,4.03
2008-02-10 16:00,32.243,25.585,30.316,4.08
2008-02-10 17:00,32.233,25.579,30.299,4.07
2008-02-10 18:00,32.205,25.562,30.229,4.01
2008-02-10 19:00,32.237,25.581,30.306,4.07
2008-02-10 20:00,32.225,25.577,30.255,4.03
2008-02-10 21:00,32.248,25.594,30.283,4.03
2008-02-10 22:00,32.229,25.595,30.128,3.87
2008-02-10 23:00,32.156,25.549,29.960,3.74
2008-02-11 00:00,32.117,25.521,29.904,3.71
2008-02-11 01:00,32.163,25.552,29.989,3.77
2008-02-11 02:00,32.210,25.578,30.127,3.89
2008-02-11 03:00,32.229,25.583,30.229,3.99
2008-02-11 04:00,32.094,25.497,29.931,3.77
2008-02-11 05:00,32.178,25.542,30.191,4.00
2008-02-11 06:00,32.111,25.521,29.855,3.66
2008-02-11 07:00,32.091,25.513,29.772,3.58
2008-02-11 08:00,32.132,25.535,29.899,3.69
2008-02-11 09:00,32.171,25.561,29.971,3.74
2008-02-11 10:00,32.209,25.580,30.105,3.86
2008-02-11 11:00,32.113,25.523,29.853,3.66
2008-02-11 12:00,32.047,25.480,29.711,3.55
2008-02-11 13:00,32.037,25.475,29.670,3.51
2008-02-11 14:00,32.030,25.473,29.631,3.47
2008-02-11 15:00,32.094,25.514,29.779,3.59
2008-02-11 16:00,32.137,25.543,29.861,3.64
2008-02-11 17:00,32.215,25.586,30.100,3.85
2008-02-11 18:00,32.204,25.579,30.078,3.83
2008-02-11 19:00,32.190,25.574,30.005,3.76
2008-02-11 20:00,32.224,25.592,30.112,3.86
2008-02-11 21:00,32.190,25.563,30.109,3.88
2008-02-11 22:00,32.024,25.471,29.604,3.44
2008-02-11 23:00,32.036,25.480,29.626,3.46
2008-02-12 00:00,32.070,25.498,29.730,3.55
2008-02-12 01:00,32.091,25.513,29.767,3.57
2008-02-12 02:00,32.089,25.512,29.760,3.57
2008-02-12 03:00,32.093,25.513,29.786,3.60
2008-02-12 04:00,32.071,25.502,29.706,3.52
2008-02-12 05:00,32.049,25.485,29.676,3.51
2008-02-12 06:00,32.146,25.541,29.954,3.74
2008-02-12 07:00,32.078,25.507,29.712,3.52
2008-02-12 08:00,32.028,25.480,29.550,3.38
2008-02-12 09:00,32.083,25.511,29.719,3.52
2008-02-12 10:00,32.092,25.516,29.745,3.55
2008-02-12 11:00,32.131,25.542,29.826,3.61
2008-02-12 12:00,32.157,25.559,29.876,3.64
2008-02-12 13:00,32.181,25.574,29.944,3.70
2008-02-12 14:00,32.225,25.594,30.108,3.85
2008-02-12 15:00,32.185,25.573,29.978,3.73
2008-02-12 16:00,32.159,25.561,29.878,3.64
2008-02-12 17:00,32.172,25.569,29.913,3.67
2008-02-12 18:00,32.151,25.557,29.853,3.62
2008-02-12 19:00,32.240,25.604,30.142,3.87
2008-02-12 20:00,32.255,25.612,30.181,3.91
2008-02-12 21:00,32.222,25.596,30.065,3.80
2008-02-12 22:00,32.234,25.606,30.070,3.79
2008-02-12 23:00,32.272,25.624,30.211,3.92
2008-02-13 00:00,32.250,25.623,30.052,3.76
2008-02-13 01:00,32.242,25.620,30.013,3.72
2008-02-13 02:00,32.227,25.608,30.001,3.72
2008-02-13 03:00,32.225,25.608,29.980,3.69
2008-02-13 04:00,32.217,25.604,29.961,3.68
2008-02-13 05:00,32.255,25.623,30.093,3.80
2008-02-13 06:00,32.279,25.633,30.182,3.88
2008-02-13 07:00,32.272,25.629,30.166,3.87
2008-02-13 08:00,32.292,25.640,30.223,3.92
2008-02-13 09:00,32.329,25.655,30.380,4.07
2008-02-13 10:00,32.296,25.641,30.250,3.95
2008-02-13 11:00,32.262,25.626,30.117,3.82
2008-02-13 12:00,32.257,25.623,30.103,3.81
2008-02-13 13:00,32.258,25.624,30.103,3.81
2008-02-13 14:00,32.252,25.621,30.080,3.79
2008-02-13 15:00,32.212,25.602,29.934,3.65
2008-02-13 16:00,32.245,25.616,30.069,3.78
2008-02-13 17:00,32.226,25.608,29.991,3.71
2008-02-13 18:00,32.248,25.621,30.044,3.75
2008-02-13 19:00,32.248,25.619,30.067,3.78
2008-02-13 20:00,32.263,25.625,30.138,3.85
2008-02-13 21:00,32.267,25.627,30.145,3.85
2008-02-13 22:00,32.270,25.631,30.137,3.84
2008-02-13 23:00,32.259,25.624,30.106,3.81
2008-02-14 00:00,32.246,25.617,30.070,3.78
2008-02-14 01:00,32.237,25.614,30.032,3.74
2008-02-14 02:00,32.216,25.599,29.996,3.72
2008-02-14 03:00,32.218,25.598,30.020,3.75
2008-02-14 04:00,32.237,25.611,30.052,3.77
2008-02-14 05:00,32.232,25.603,30.084,3.81
2008-02-14 06:00,32.210,25.591,30.015,3.75
2008-02-14 07:00,32.174,25.570,29.918,3.67
2008-02-14 08:00,32.161,25.566,29.854,3.61
2008-02-14 09:00,32.120,25.537,29.776,3.56
2008-02-14 10:00,32.116,25.533,29.789,3.58
2008-02-14 11:00,32.139,25.547,29.843,3.62
2008-02-14 12:00,32.177,25.569,29.948,3.70
2008-02-14 13:00,32.216,25.595,30.027,3.76
2008-02-14 14:00,32.222,25.599,30.039,3.77
2008-02-14 15:00,32.224,25.601,30.033,3.76
2008-02-14 16:00,32.224,25.601,30.036,3.76
2008-02-14 17:00,32.218,25.598,30.016,3.74
2008-02-14 18:00,32.177,25.571,29.931,3.68
2008-02-14 19:00,32.144,25.551,29.848,3.62
2008-02-14 20:00,32.085,25.514,29.707,3.51
2008-02-14 21:00,32.113,25.532,29.771,3.56
2008-02-14 22:00,32.127,25.540,29.819,3.60
2008-02-14 23:00,32.176,25.568,29.945,3.70
2008-02-15 00:00,32.193,25.580,29.979,3.73
2008-02-15 01:00,32.208,25.591,29.998,3.73
2008-02-15 02:00,32.244,25.613,30.091,3.81
2008-02-15 03:00,32.236,25.609,30.058,3.78
2008-02-15 04:00,32.221,25.602,30.010,3.73
2008-02-15 05:00,32.230,25.607,30.037,3.76
2008-02-15 06:00,32.245,25.615,30.083,3.80
2008-02-15 07:00,32.230,25.605,30.048,3.77
2008-02-15 08:00,32.212,25.592,30.026,3.76
2008-02-15 09:00,32.212,25.591,30.033,3.77
2008-02-15 10:00,32.164,25.562,29.906,3.67
2008-02-15 11:00,32.153,25.558,29.856,3.62
2008-02-15 12:00,32.271,25.628,30.170,3.88
2008-02-15 13:00,32.248,25.617,30.081,3.79
2008-02-15 14:00,32.231,25.607,30.038,3.76
2008-02-15 15:00,32.217,25.602,29.975,3.70
2008-02-15 16:00,32.257,25.623,30.101,3.81
2008-02-15 17:00,32.230,25.610,30.006,3.72
2008-02-15 18:00,32.214,25.600,29.963,3.69
2008-02-15 19:00,32.221,25.603,29.994,3.72
2008-02-15 20:00,32.254,25.620,30.106,3.82
2008-02-15 21:00,32.309,25.649,30.277,3.97
2008-02-15 22:00,32.233,25.606,30.059,3.78
2008-02-15 23:00,32.242,25.612,30.078,3.80
2008-02-16 00:00,32.249,25.617,30.092,3.81
2008-02-16 01:00,32.219,25.604,29.974,3.69
2008-02-16 02:00,32.231,25.610,30.008,3.72
2008-02-16 03:00,32.263,25.630,30.094,3.79
2008-02-16 04:00,32.270,25.634,30.113,3.81
2008-02-16 05:00,32.274,25.635,30.129,3.82
2008-02-16 06:00,32.270,25.635,30.099,3.79
2008-02-16 07:00,32.259,25.630,30.064,3.76
2008-02-16 08:00,32.240,25.616,30.029,3.74
2008-02-16 09:00,32.236,25.613,30.023,3.74
2008-02-16 10:00,32.240,25.615,30.041,3.75
2008-02-16 11:00,32.229,25.610,29.994,3.71
2008-02-16 12:00,32.216,25.604,29.951,3.67
2008-02-16 13:00,32.224,25.609,29.970,3.68
2008-02-16 14:00,32.240,25.619,30.001,3.70
2008-02-16 15:00,32.267,25.637,30.057,3.74
2008-02-16 16:00,32.294,25.654,30.124,3.80
2008-02-16 17:00,32.326,25.672,30.219,3.88
2008-02-16 18:00,32.333,25.677,30.228,3.88
2008-02-16 19:00,32.295,25.657,30.098,3.77
2008-02-16 20:00,32.298,25.657,30.128,3.80
2008-02-16 21:00,32.277,25.645,30.065,3.74
2008-02-16 22:00,32.290,25.651,30.111,3.79
2008-02-16 23:00,32.254,25.629,30.025,3.72
2008-02-17 00:00,32.239,25.622,29.978,3.68
2008-02-17 01:00,32.308,25.659,30.187,3.86
2008-02-17 02:00,32.339,25.678,30.262,3.92
2008-02-17 03:00,32.327,25.676,30.185,3.84
2008-02-17 04:00,32.330,25.678,30.185,3.84
2008-02-17 05:00,32.423,25.728,30.475,4.09
2008-02-17 06:00,32.366,25.705,30.239,3.86
2008-02-17 07:00,32.394,25.718,30.344,3.96
2008-02-17 08:00,32.342,25.676,30.305,3.97
2008-02-17 09:00,32.326,25.676,30.178,3.83
2008-02-17 10:00,32.289,25.656,30.065,3.73
2008-02-17 11:00,32.287,25.652,30.090,3.76
2008-02-17 12:00,32.262,25.638,30.010,3.69
2008-02-17 13:00,32.255,25.633,29.998,3.69
2008-02-17 14:00,32.322,25.670,30.196,3.86
2008-02-17 15:00,32.324,25.675,30.170,3.82
2008-02-17 16:00,32.340,25.689,30.177,3.82
2008-02-17 17:00,32.357,25.696,30.244,3.88
2008-02-17 18:00,32.417,25.727,30.441,4.05
2008-02-17 19:00,32.409,25.724,30.402,4.01
2008-02-17 20:00,32.381,25.712,30.293,3.91
2008-02-17 21:00,32.420,25.728,30.456,4.07
2008-02-17 22:00,32.431,25.721,30.593,4.22
2008-02-17 23:00,32.306,25.664,30.127,3.79
2008-02-18 00:00,32.287,25.657,30.045,3.71
2008-02-18 01:00,32.306,25.664,30.124,3.79
2008-02-18 02:00,32.290,25.658,30.059,3.72
2008-02-18 03:00,32.307,25.667,30.104,3.76
2008-02-18 04:00,32.313,25.670,30.132,3.79
2008-02-18 05:00,32.345,25.684,30.254,3.90
2008-02-18 06:00,32.378,25.709,30.298,3.92
2008-02-18 07:00,32.330,25.680,30.175,3.82
2008-02-18 08:00,32.329,25.678,30.183,3.83
2008-02-18 09:00,32.374,25.698,30.357,4.00
2008-02-18 10:00,32.305,25.664,30.120,3.78
2008-02-18 11:00,32.344,25.683,30.260,3.91
2008-02-18 12:00,32.356,25.686,30.329,3.98
2008-02-18 13:00,32.294,25.658,30.086,3.75
2008-02-18 14:00,32.318,25.666,30.200,3.87
2008-02-18 15:00,32.361,25.692,30.309,3.95
2008-02-18 16:00,32.323,25.672,30.186,3.84
2008-02-18 17:00,32.280,25.643,30.101,3.79
2008-02-18 18:00,32.371,25.698,30.338,3.98
2008-02-18 19:00,32.358,25.693,30.276,3.91
2008-02-18 20:00,32.321,25.670,30.198,3.86
2008-02-18 21:00,32.342,25.682,30.256,3.91
2008-02-18 22:00,32.393,25.712,30.380,4.00
2008-02-18 23:00,32.301,25.657,30.147,3.82
2008-02-19 00:00,32.289,25.649,30.127,3.81
2008-02-19 01:00,32.266,25.633,30.081,3.78
2008-02-19 02:00,32.244,25.619,30.036,3.74
2008-02-19 03:00,32.254,25.626,30.057,3.76
2008-02-19 04:00,32.366,25.695,30.329,3.97
2008-02-19 05:00,32.298,25.653,30.162,3.84
2008-02-19 06:00,32.361,25.692,30.305,3.95
2008-02-19 07:00,32.382,25.705,30.365,4.00
2008-02-19 08:00,32.362,25.692,30.321,3.96
2008-02-19 09:00,32.361,25.691,30.316,3.96
2008-02-19 10:00,32.340,25.680,30.254,3.91
2008-02-19 11:00,32.341,25.681,30.250,3.90
2008-02-19 12:00,32.298,25.656,30.133,3.81
2008-02-19 13:00,32.307,25.659,30.182,3.85
2008-02-19 14:00,32.270,25.636,30.086,3.78
2008-02-19 15:00,32.261,25.629,30.081,3.78
2008-02-19 16:00,32.350,25.687,30.268,3.91
2008-02-19 17:00,32.299,25.656,30.141,3.81
2008-02-19 18:00,32.270,25.633,30.110,3.81
2008-02-19 19:00,32.269,25.631,30.129,3.83
2008-02-19 20:00,32.354,25.687,30.300,3.95
2008-02-19 21:00,32.349,25.684,30.291,3.94
2008-02-19 22:00,32.405,25.716,30.440,4.06
2008-02-19 23:00,32.326,25.669,30.235,3.90
2008-02-20 00:00,32.322,25.664,30.251,3.92
2008-02-20 01:00,32.339,25.680,30.243,3.89
2008-02-20 02:00,32.278,25.643,30.091,3.78
2008-02-20 03:00,32.280,25.643,30.102,3.79
2008-02-20 04:00,32.287,25.649,30.109,3.79
2008-02-20 05:00,32.320,25.669,30.198,3.86
2008-02-20 06:00,32.243,25.615,30.059,3.77
2008-02-20 07:00,32.265,25.630,30.108,3.81
2008-02-20 08:00,32.313,25.659,30.219,3.89
2008-02-20 09:00,32.286,25.644,30.149,3.84
2008-02-20 10:00,32.321,25.665,30.235,3.90
2008-02-20 11:00,32.373,25.697,30.361,4.00
2008-02-20 12:00,32.372,25.696,30.359,4.00
2008-02-20 13:00,32.429,25.725,30.551,4.17
2008-02-20 14:00,32.398,25.714,30.405,4.03
2008-02-20 15:00,32.268,25.628,30.145,3.85
2008-02-20 16:00,32.283,25.644,30.125,3.81
2008-02-20 17:00,32.309,25.660,30.186,3.86
2008-02-20 18:00,32.307,25.656,30.201,3.88
2008-02-20 19:00,32.331,25.670,30.269,3.93
2008-02-20 20:00,32.304,25.653,30.203,3.88
2008-02-20 21:00,32.321,25.666,30.226,3.89
2008-02-20 22:00,32.408,25.715,30.471,4.10
2008-02-20 23:00,32.341,25.676,30.295,3.95
2008-02-21 00:00,32.339,25.681,30.238,3.89
2008-02-21 01:00,32.333,25.674,30.252,3.91
2008-02-21 02:00,32.403,25.715,30.438,4.06
2008-02-21 03:00,32.377,25.701,30.357,3.99
2008-02-21 04:00,32.297,25.656,30.131,3.80
2008-02-21 05:00,32.394,25.711,30.403,4.03
2008-02-21 06:00,32.345,25.682,30.276,3.93
2008-02-21 07:00,32.399,25.711,30.439,4.07
2008-02-21 08:00,32.343,25.683,30.255,3.90
2008-02-21 09:00,32.473,25.754,30.634,4.22
2008-02-21 10:00,32.344,25.681,30.272,3.92
2008-02-21 11:00,32.289,25.657,30.051,3.72
2008-02-21 12:00,32.296,25.662,30.067,3.73
2008-02-21 13:00,32.343,25.687,30.220,3.86
2008-02-21 14:00,32.210,25.611,29.841,3.54
2008-02-21 15:00,32.434,25.734,30.516,4.12
2008-02-21 16:00,32.325,25.671,30.218,3.88
2008-02-21 17:00,32.357,25.689,30.307,3.95
2008-02-21 18:00,32.583,25.818,30.921,4.45
2008-02-21 19:00,32.515,25.778,30.741,4.31
2008-02-21 20:00,32.302,25.663,30.111,3.77
2008-02-21 21:00,32.452,25.747,30.538,4.13
2008-02-21 22:00,32.431,25.736,30.473,4.08
2008-02-21 23:00,32.417,25.726,30.445,4.06
2008-02-22 00:00,32.426,25.732,30.460,4.07
2008-02-22 01:00,32.401,25.718,30.393,4.01
2008-02-22 02:00,32.467,25.750,30.621,4.22
2008-02-22 03:00,32.483,25.759,30.668,4.26
2008-02-22 04:00,32.152,25.565,29.790,3.54
2008-02-22 05:00,32.204,25.602,29.871,3.59
2008-02-22 06:00,32.638,25.846,31.093,4.60
2008-02-22 07:00,32.622,25.838,31.042,4.56
2008-02-22 08:00,32.438,25.733,30.551,4.16
2008-02-22 09:00,32.519,25.781,30.749,4.32
2008-02-22 10:00,32.522,25.785,30.746,4.31
2008-02-22 11:00,32.451,25.750,30.507,4.10
2008-02-22 12:00,32.508,25.778,30.697,4.26
2008-02-22 13:00,32.418,25.732,30.405,4.01
2008-02-22 14:00,32.339,25.681,30.231,3.88
2008-02-22 15:00,32.544,25.796,30.816,4.37
2008-02-22 16:00,32.354,25.687,30.300,3.95
2008-02-22 17:00,32.292,25.650,30.137,3.82
2008-02-22 18:00,32.565,25.816,30.806,4.34
2008-02-22 19:00,32.551,25.800,30.841,4.39
2008-02-22 21:00,32.407,25.727,30.358,3.96
2008-02-22 22:00,32.408,25.722,30.412,4.03
2008-02-22 23:00,32.443,25.743,30.500,4.10
2008-02-23 00:00,32.380,25.715,30.259,3.87
2008-02-23 01:00,32.348,25.684,30.274,3.92
2008-02-23 02:00,32.338,25.679,30.245,3.90
2008-02-23 03:00,32.309,25.661,30.181,3.85
2008-02-23 04:00,32.458,25.746,30.591,4.19
2008-02-23 05:00,32.303,25.655,30.178,3.85
2008-02-23 06:00,32.400,25.714,30.424,4.05
2008-02-23 07:00,32.201,25.592,29.935,3.66
2008-02-23 08:00,32.457,25.749,30.556,4.15
2008-02-23 09:00,32.314,25.681,30.038,3.67
2008-02-23 10:00,32.349,25.696,30.176,3.81
2008-02-23 11:00,32.397,25.723,30.320,3.93
2008-02-23 12:00,32.373,25.708,30.258,3.88
2008-02-23 13:00,32.399,25.726,30.316,3.92
2008-02-23 14:00,32.427,25.728,30.510,4.12
2008-02-23 15:00,32.585,25.817,30.937,4.47
2008-02-23 16:00,32.224,25.626,29.814,3.50
2008-02-23 17:00,32.603,25.827,30.996,4.52
2008-02-23 18:00,32.602,25.827,30.992,4.52
2008-02-23 19:00,32.606,25.829,30.997,4.52
2008-02-23 20:00,32.579,25.815,30.915,4.45
2008-02-23 21:00,32.503,25.771,30.716,4.29
2008-02-23 22:00,32.254,25.612,30.179,3.90
2008-02-23 23:00,32.401,25.717,30.400,4.02
2008-02-24 00:00,32.308,25.660,30.177,3.85
2008-02-24 01:00,32.444,25.742,30.520,4.12
2008-02-24 02:00,32.550,25.793,30.881,4.44
2008-02-24 03:00,32.572,25.811,30.902,4.44
2008-02-24 04:00,32.442,25.743,30.492,4.09
2008-02-24 05:00,32.422,25.731,30.438,4.04
2008-02-24 06:00,32.405,25.724,30.375,3.99
2008-02-24 07:00,32.521,25.783,30.747,4.31
2008-02-24 08:00,32.507,25.777,30.702,4.27
2008-02-24 09:00,32.485,25.767,30.611,4.19
2008-02-24 10:00,32.466,25.754,30.585,4.17
2008-02-24 11:00,32.384,25.704,30.379,4.01
2008-02-24 12:00,32.346,25.684,30.262,3.91
2008-02-24 13:00,32.397,25.719,30.355,3.97
2008-02-24 14:00,32.370,25.709,30.228,3.85
2008-02-24 15:00,32.439,25.740,30.501,4.10
2008-02-24 16:00,32.454,25.747,30.553,4.15
2008-02-24 17:00,32.535,25.792,30.784,4.34
2008-02-24 18:00,32.489,25.769,30.627,4.20
2008-02-24 19:00,32.509,25.779,30.694,4.26
2008-02-24 20:00,32.474,25.758,30.610,4.20
2008-02-24 21:00,32.486,25.765,30.646,4.23
2008-02-24 22:00,32.480,25.761,30.627,4.21
2008-02-24 23:00,32.475,25.758,30.611,4.20
2008-02-25 00:00,32.365,25.702,30.248,3.88
2008-02-25 01:00,32.393,25.718,30.336,3.95
2008-02-25 02:00,32.475,25.757,30.625,4.21
2008-02-25 03:00,32.413,25.724,30.435,4.05
2008-02-25 04:00,32.438,25.736,30.527,4.13
2008-02-25 05:00,32.406,25.726,30.364,3.97
2008-02-25 06:00,32.326,25.694,30.019,3.64
2008-02-25 07:00,32.301,25.681,29.938,3.57
2008-02-25 08:00,32.446,25.746,30.497,4.09
2008-02-25 09:00,32.426,25.733,30.463,4.07
2008-02-25 10:00,32.477,25.759,30.623,4.21
2008-02-25 11:00,32.468,25.754,30.593,4.18
2008-02-25 12:00,32.439,25.741,30.489,4.09
2008-02-25 13:00,32.437,25.740,30.482,4.08
2008-02-25 14:00,32.462,25.753,30.565,4.15
2008-02-25 15:00,32.413,25.725,30.421,4.03
2008-02-25 16:00,32.442,25.743,30.501,4.10
2008-02-25 17:00,32.413,25.762,30.101,3.65
2008-02-25 18:00,32.300,25.673,30.000,3.64
2008-02-25 19:00,32.481,25.775,30.521,4.08
2008-02-25 20:00,32.539,25.804,30.711,4.25
2008-02-25 21:00,32.495,25.778,30.602,4.16
2008-02-25 22:00,32.422,25.730,30.451,4.06
2008-02-25 23:00,32.422,25.730,30.448,4.06
2008-02-26 00:00,32.490,25.768,30.645,4.22
2008-02-26 01:00,32.376,25.704,30.315,3.94
2008-02-26 02:00,32.391,25.714,30.356,3.98
2008-02-26 03:00,32.478,25.763,30.597,4.18
2008-02-26 04:00,32.432,25.743,30.419,4.01
2008-02-26 05:00,32.542,25.816,30.634,4.16
2008-02-26 06:00,32.591,25.834,30.851,4.36
2008-02-26 07:00,32.781,25.935,31.407,4.82
2008-02-26 08:00,32.682,25.883,31.121,4.59
2008-02-26 09:00,32.695,25.888,31.173,4.64
2008-02-26 10:00,32.328,25.695,30.032,3.65
2008-02-26 11:00,32.433,25.738,30.464,4.06
2008-02-26 12:00,32.431,25.734,30.481,4.09
2008-02-26 13:00,32.445,25.744,30.510,4.11
2008-02-26 14:00,32.411,25.721,30.446,4.06
2008-02-26 15:00,32.476,25.761,30.594,4.18
2008-02-26 16:00,32.689,25.885,31.147,4.61
2008-02-26 17:00,32.771,25.931,31.375,4.80
2008-02-26 18:00,32.387,25.723,30.240,3.84
2008-02-26 19:00,32.545,25.805,30.744,4.28
2008-02-26 20:00,32.561,25.814,30.793,4.32
2008-02-26 21:00,32.775,25.940,31.334,4.74
2008-02-26 22:00,32.733,25.912,31.257,4.70
2008-02-26 23:00,32.643,25.870,30.938,4.41
2008-02-27 00:00,32.468,25.758,30.563,4.15